GW2746 Weather Reports


Display with metric or nautical units.
time (UTC)temp
F
wind
direction
speed
MPH
gust
MPH
rain 1hr
in
rain 24hr
in
rain mn
in
humidity
%
barometer
mb
20260906120625 78 104 0.0 4.0 0.00 0.00 0.00 87 1015.3
20260906120127 78 125 1.0 5.0 0.00 0.00 0.00 87 1015.2
20260906115629 78 173 0.0 4.0 0.00 0.00 0.00 87 1015.2
20260906115127 78 288 2.0 5.0 0.00 0.00 0.00 87 1015.0
20260906114630 79 359 0.0 4.0 0.00 0.00 0.00 87 1014.9
20260906114130 79 192 1.0 6.0 0.00 0.00 0.00 87 1014.9
20260906113618 79 151 2.0 6.0 0.00 0.00 0.00 87 1014.9
20260906113120 79 119 1.0 5.0 0.00 0.00 0.00 87 1014.9
20260906112623 79 48 0.0 8.0 0.00 0.00 0.00 86 1014.8
20260906112122 79 150 1.0 8.0 0.00 0.00 0.00 86 1014.9
20260906111625 79 163 3.0 5.0 0.00 0.00 0.00 86 1015.0
20260906111126 79 79 2.0 5.0 0.00 0.00 0.00 87 1015.1
20260906110621 79 127 1.0 6.0 0.00 0.00 0.00 87 1015.0
20260906110125 79 166 3.0 6.0 0.00 0.00 0.00 87 1015.0
20260906105628 79 136 0.0 6.0 0.00 0.00 0.00 87 1015.0
20260906105124 79 150 2.0 5.0 0.00 0.00 0.00 87 1014.9
20260906104627 79 155 3.0 5.0 0.00 0.00 0.00 87 1014.9
20260906104148 79 83 0.0 4.0 0.00 0.00 0.00 87 1014.8
20260906103630 79 77 1.0 3.0 0.00 0.00 0.00 86 1014.8
20260906103127 79 98 1.0 3.0 0.00 0.00 0.00 86 1014.7
20260906102631 79 45 0.0 3.0 0.00 0.00 0.00 86 1014.7
20260906102113 79 83 1.0 3.0 0.00 0.00 0.00 86 1014.6
20260906101619 79 77 1.0 3.0 0.00 0.00 0.00 86 1014.6
20260906101135 79 358 1.0 3.0 0.00 0.00 0.00 86 1014.6
20260906100620 79 73 0.0 4.0 0.00 0.00 0.00 85 1014.6
20260906100138 79 90 0.0 4.0 0.00 0.00 0.00 85 1014.6
20260906095621 79 77 2.0 4.0 0.00 0.00 0.00 85 1014.5
20260906095145 79 55 2.0 4.0 0.00 0.00 0.00 85 1014.5
20260906094647 79 106 0.0 5.0 0.00 0.00 0.00 84 1014.5
20260906094144 79 109 1.0 5.0 0.00 0.00 0.00 84 1014.6
20260906093627 79 76 2.0 4.0 0.00 0.00 0.00 84 1014.6
20260906093124 80 76 2.0 4.0 0.00 0.00 0.00 84 1014.7
20260906092629 80 119 0.0 1.0 0.00 0.00 0.00 84 1014.6
20260906092127 80 102 0.0 3.0 0.00 0.00 0.00 84 1014.6
20260906091631 80 102 1.0 3.0 0.00 0.00 0.00 84 1014.6
20260906091130 80 92 1.0 2.0 0.00 0.00 0.00 83 1014.6
20260906090633 80 94 0.0 5.0 0.00 0.00 0.00 83 1014.6
20260906090152 80 190 0.0 5.0 0.00 0.00 0.00 83 1014.7
20260906085652 80 102 1.0 2.0 0.00 0.00 0.00 83 1014.7
20260906085129 80 99 1.0 4.0 0.00 0.00 0.00 83 1014.6
20260906084621 80 99 1.0 7.0 0.00 0.00 0.00 83 1014.6
20260906084118 80 9 1.0 4.0 0.00 0.00 0.00 83 1014.5
20260906083624 80 43 0.0 4.0 0.00 0.00 0.00 83 1014.6
20260906083129 80 117 1.0 4.0 0.00 0.00 0.00 83 1014.5
20260906082632 81 73 0.0 4.0 0.00 0.00 0.00 83 1014.5
20260906082130 81 88 1.0 4.0 0.00 0.00 0.00 82 1014.4
20260906081616 81 82 1.0 4.0 0.00 0.00 0.00 82 1014.5
20260906081136 81 65 1.0 4.0 0.00 0.00 0.00 82 1014.5
20260906080621 81 200 0.0 3.0 0.00 0.00 0.00 82 1014.5
20260906080119 81 200 1.0 3.0 0.00 0.00 0.00 82 1014.4
20260906075639 81 258 1.0 3.0 0.00 0.00 0.00 82 1014.4
20260906075138 81 30 0.0 6.0 0.00 0.00 0.00 82 1014.3
20260906074643 81 102 3.0 6.0 0.00 0.00 0.00 81 1014.2
20260906074123 81 152 2.0 8.0 0.00 0.00 0.00 81 1014.2
20260906073628 81 195 0.0 8.0 0.00 0.00 0.00 81 1014.2
20260906073128 81 175 1.0 6.0 0.00 0.00 0.00 81 1014.1
20260906072653 81 135 2.0 6.0 0.00 0.00 0.00 81 1014.2
20260906072155 81 239 1.0 7.0 0.00 0.00 0.00 81 1014.3
20260906071617 81 146 3.0 7.0 0.00 0.00 0.00 81 1014.3
20260906071116 81 129 3.0 6.0 0.00 0.00 0.00 81 1014.3
20260906070620 81 38 1.0 5.0 0.00 0.00 0.00 81 1014.4
20260906070121 81 161 0.0 5.0 0.00 0.00 0.00 81 1014.4
20260906065624 81 182 1.0 5.0 0.00 0.00 0.00 82 1014.5
20260906065120 81 29 1.0 4.0 0.00 0.00 0.00 82 1014.5
20260906064628 82 125 0.0 6.0 0.00 0.00 0.00 82 1014.5
20260906064126 82 125 2.0 8.0 0.00 0.00 0.00 82 1014.5
20260906063635 82 186 1.0 8.0 0.00 0.00 0.00 82 1014.5
20260906063133 81 112 2.0 7.0 0.00 0.00 0.00 82 1014.5
20260906062617 82 23 1.0 6.0 0.00 0.00 0.00 82 1014.7
20260906062134 82 48 2.0 6.0 0.00 0.00 0.00 82 1014.7
20260906061618 82 208 1.0 5.0 0.00 0.00 0.00 83 1014.6
20260906061117 82 60 3.0 5.0 0.00 0.00 0.00 82 1014.6
20260906060623 82 346 3.0 5.0 0.00 0.00 0.00 82 1014.6
20260906060122 82 111 3.0 5.0 0.00 0.00 0.00 82 1014.5
20260906055649 82 125 2.0 5.0 0.00 0.00 0.00 82 1014.6
20260906055129 82 63 1.0 6.0 0.00 0.00 0.00 82 1014.5
20260906054632 82 138 2.0 6.0 0.00 0.00 0.00 82 1014.5
20260906054131 82 28 2.0 7.0 0.00 0.00 0.00 81 1014.5
20260906053638 83 110 1.0 7.0 0.00 0.00 0.00 81 1014.5
20260906053136 83 82 2.0 8.0 0.00 0.00 0.00 81 1015.5
20260906052618 83 145 2.0 8.0 0.00 0.00 0.00 81 1015.4
20260906052119 83 158 1.0 6.0 0.00 0.00 0.00 80 1015.4
20260906051622 83 345 1.0 7.0 0.00 0.00 0.00 80 1015.4
20260906051140 83 83 1.0 7.0 0.00 0.00 0.00 80 1015.5
20260906050625 84 92 1.0 7.0 0.00 0.00 0.00 79 1015.5
20260906050123 84 88 3.0 7.0 0.00 0.00 0.00 79 1015.6
20260906045617 84 53 1.0 7.0 0.00 0.00 0.00 78 1015.6
20260906045136 84 54 3.0 7.0 0.00 0.00 0.00 78 1015.6
20260906044641 84 94 2.0 5.0 0.00 0.00 0.00 78 1015.5
20260906044118 84 60 1.0 8.0 0.00 0.00 0.00 77 1015.6
20260906043622 84 29 1.0 8.0 0.00 0.00 0.00 77 1015.5
20260906043120 85 63 3.0 7.0 0.00 0.00 0.00 76 1015.6
20260906042622 85 102 1.0 5.0 0.00 0.00 0.00 76 1015.6
20260906042120 85 14 1.0 6.0 0.00 0.00 0.00 76 1015.6
20260906041640 85 50 1.0 8.0 0.00 0.00 0.00 75 1015.6
20260906041137 85 74 3.0 8.0 0.00 0.00 0.00 75 1015.6
20260906040623 85 157 2.0 5.0 0.00 0.00 0.00 75 1015.6
20260906040119 85 88 2.0 5.0 0.00 0.00 0.00 74 1015.6
20260906035622 85 68 1.0 8.0 0.00 0.00 0.00 74 1015.6
20260906035140 86 88 3.0 8.0 0.00 0.00 0.00 74 1015.6
20260906034622 86 87 2.0 8.0 0.00 0.00 0.00 74 1015.5
20260906034119 86 85 2.0 7.0 0.00 0.00 0.00 74 1015.5
20260906033622 86 88 1.0 7.0 0.00 0.00 0.00 74 1015.6
20260906033142 86 53 2.0 5.0 0.00 0.00 0.00 74 1015.4
20260906032625 86 104 1.0 6.0 0.00 0.00 0.00 73 1015.3
20260906032123 86 9 2.0 6.0 0.00 0.00 0.00 73 1015.4
20260906031626 86 72 2.0 7.0 0.00 0.00 0.00 73 1015.3
20260906031123 86 136 3.0 7.0 0.00 0.00 0.00 73 1015.2
20260906030626 86 86 2.0 7.0 0.00 0.00 0.00 74 1015.2
20260906030124 86 65 2.0 8.0 0.00 0.00 0.00 74 1015.0
20260906025629 86 64 4.0 9.0 0.00 0.00 0.00 74 1014.9
20260906025151 87 123 3.0 10.0 0.00 0.00 0.00 74 1014.8
20260906024620 87 117 3.0 10.0 0.00 0.00 0.00 74 1014.8
20260906024118 87 105 1.0 5.0 0.00 0.00 0.00 74 1014.7
20260906023623 87 85 1.0 6.0 0.00 0.00 0.00 74 1014.6
20260906023141 87 69 2.0 6.0 0.00 0.00 0.00 74 1014.6
20260906022646 87 181 2.0 8.0 0.00 0.00 0.00 73 1014.6
20260906022122 87 66 4.0 8.0 0.00 0.00 0.00 74 1014.6
20260906021625 87 94 2.0 8.0 0.00 0.00 0.00 73 1014.4
20260906021123 87 76 2.0 6.0 0.00 0.00 0.00 73 1014.3
20260906020625 87 119 3.0 6.0 0.00 0.00 0.00 73 1014.3
20260906020131 88 75 2.0 8.0 0.00 0.00 0.00 73 1014.1
20260906015635 88 93 0.0 8.0 0.00 0.00 0.00 73 1014.1
20260906015131 88 67 2.0 6.0 0.00 0.00 0.00 72 1014.0
20260906014617 88 71 2.0 6.0 0.00 0.00 0.00 72 1014.0
20260906014118 88 42 2.0 5.0 0.00 0.00 0.00 72 1013.9
20260906013622 88 87 2.0 4.0 0.00 0.00 0.00 72 1013.8
20260906013122 88 100 1.0 4.0 0.00 0.00 0.00 71 1013.7
20260906012628 88 85 1.0 4.0 0.00 0.00 0.00 71 1013.7
20260906012126 89 144 0.0 4.0 0.00 0.00 0.00 71 1013.7
20260906011635 89 87 1.0 5.0 0.00 0.00 0.00 70 1013.7
20260906011133 89 46 2.0 5.0 0.00 0.00 0.00 70 1013.7
20260906010620 89 139 3.0 12.0 0.00 0.00 0.00 69 1013.6
20260906010116 89 90 2.0 12.0 0.00 0.00 0.00 69 1013.5
20260906005619 89 108 3.0 9.0 0.00 0.00 0.00 68 1013.5
20260906005120 90 149 3.0 9.0 0.00 0.00 0.00 68 1013.4
20260906004628 90 125 0.0 7.0 0.00 0.00 0.00 68 1013.5
20260906004126 90 113 3.0 6.0 0.00 0.00 0.00 68 1013.6
20260906003629 90 84 2.0 6.0 0.00 0.00 0.00 67 1013.5
20260906003125 91 109 3.0 6.0 0.00 0.00 0.00 67 1013.5
20260906002630 91 59 1.0 8.0 0.00 0.00 0.00 66 1013.4
20260906002132 91 127 2.0 8.0 0.00 0.00 0.00 66 1013.4
20260906001636 92 122 4.0 7.0 0.00 0.00 0.00 65 1013.3
20260906001133 92 151 2.0 7.0 0.00 0.00 0.00 65 1013.2
20260906000639 92 92 1.0 6.0 0.00 0.00 0.00 65 1013.2
20260906000123 93 166 2.0 7.0 0.00 0.00 0.00 64 1013.2
20260905235628 93 163 1.0 7.0 0.00 0.00 0.00 63 1013.2
20260905235125 93 96 1.0 5.0 0.00 0.00 0.00 64 1013.2
20260905234646 93 186 2.0 5.0 0.00 0.00 0.00 63 1013.3
20260905234123 93 19 0.0 5.0 0.00 0.00 0.00 63 1013.2
20260905233648 93 63 2.0 8.0 0.00 0.00 0.00 63 1013.2
20260905233130 93 202 2.0 8.0 0.00 0.00 0.00 62 1013.2
20260905232633 93 196 4.0 7.0 0.00 0.00 0.00 61 1013.2
20260905232153 94 97 2.0 6.0 0.00 0.00 0.00 62 1013.2
20260905231620 93 148 1.0 5.0 0.00 0.00 0.00 62 1013.2
20260905231140 93 174 1.0 5.0 0.00 0.00 0.00 61 1013.2
20260905230625 93 194 1.0 7.0 0.00 0.00 0.00 61 1013.2
20260905230124 94 125 3.0 10.0 0.00 0.00 0.00 60 1013.2
20260905225627 93 36 3.0 10.0 0.00 0.00 0.00 61 1013.2
20260905225126 93 125 3.0 8.0 0.00 0.00 0.00 61 1013.2
20260905224632 93 175 2.0 8.0 0.00 0.00 0.00 61 1013.2
20260905224128 93 137 4.0 9.0 0.00 0.00 0.00 62 1013.2
20260905223633 93 107 2.0 12.0 0.00 0.00 0.00 62 1013.1
20260905223131 93 217 5.0 12.0 0.00 0.00 0.00 61 1013.1
20260905222636 93 71 4.0 12.0 0.00 0.00 0.00 61 1013.0
20260905222114 93 55 2.0 12.0 0.00 0.00 0.00 62 1012.9
20260905221642 93 216 4.0 8.0 0.00 0.00 0.00 61 1012.9
20260905221120 92 125 4.0 9.0 0.00 0.00 0.00 62 1012.7
20260905220631 92 103 4.0 11.0 0.00 0.00 0.00 61 1012.7
20260905220133 92 176 6.0 11.0 0.00 0.00 0.00 61 1012.7
20260905215616 93 150 6.0 11.0 0.00 0.00 0.00 60 1012.8
20260905215132 93 112 5.0 11.0 0.00 0.00 0.00 60 1012.9
20260905214656 93 136 5.0 8.0 0.00 0.00 0.00 60 1012.9
20260905214152 92 99 3.0 11.0 0.00 0.00 0.00 61 1013.0
20260905213616 92 151 5.0 11.0 0.00 0.00 0.00 61 1013.1
20260905213139 92 215 3.0 12.0 0.00 0.00 0.00 61 1013.1
20260905212622 92 96 4.0 12.0 0.00 0.00 0.00 61 1013.2
20260905212122 92 152 3.0 13.0 0.00 0.00 0.00 61 1013.2
20260905211625 92 108 6.0 14.0 0.00 0.00 0.00 59 1013.2
20260905211124 92 106 3.0 14.0 0.00 0.00 0.00 59 1013.3
20260905210627 93 139 7.0 12.0 0.00 0.00 0.00 58 1013.5
20260905210148 92 201 4.0 7.0 0.00 0.00 0.00 59 1013.6
20260905205629 93 175 4.0 9.0 0.00 0.00 0.00 58 1013.7
20260905205147 92 175 3.0 14.0 0.00 0.00 0.00 58 1013.8
20260905204630 93 123 5.0 14.0 0.00 0.00 0.00 58 1013.9
20260905204128 92 92 6.0 11.0 0.00 0.00 0.00 58 1014.0
20260905203613 92 164 4.0 11.0 0.00 0.00 0.00 58 1014.2
20260905203116 92 112 4.0 11.0 0.00 0.00 0.00 58 1014.3
20260905202622 92 90 5.0 11.0 0.00 0.00 0.00 58 1014.4
20260905202118 92 201 5.0 11.0 0.00 0.00 0.00 56 1014.4
20260905201625 92 53 1.0 8.0 0.00 0.00 0.00 58 1014.6
20260905201125 92 81 4.0 8.0 0.00 0.00 0.00 60 1014.7
20260905200632 91 61 3.0 13.0 0.00 0.00 0.00 61 1014.9
20260905200119 91 175 3.0 13.0 0.00 0.00 0.00 61 1015.1
20260905195622 91 70 6.0 11.0 0.00 0.00 0.00 59 1015.2
20260905195119 91 56 5.0 13.0 0.00 0.00 0.00 60 1015.3
20260905194623 91 90 4.0 14.0 0.00 0.00 0.00 60 1015.4
20260905194122 91 92 6.0 15.0 0.00 0.00 0.00 58 1015.4
20260905193623 90 203 4.0 15.0 0.00 0.00 0.00 58 1015.4
20260905193119 91 19 6.0 12.0 0.00 0.00 0.00 58 1015.3
20260905192622 91 46 5.0 12.0 0.00 0.00 0.00 58 1015.4
20260905192118 91 60 4.0 9.0 0.00 0.00 0.00 59 1015.5
20260905191641 90 47 2.0 13.0 0.00 0.00 0.00 62 1015.5
20260905191141 90 56 2.0 13.0 0.00 0.00 0.00 64 1015.7
20260905190624 90 14 4.0 14.0 0.00 0.00 0.00 65 1015.7
20260905190129 90 110 3.0 14.0 0.00 0.00 0.00 65 1015.9
20260905185617 90 166 4.0 12.0 0.00 0.00 0.00 65 1015.9
20260905185118 89 56 6.0 12.0 0.00 0.00 0.00 66 1016.1
20260905184622 89 90 6.0 11.0 0.00 0.00 0.00 65 1016.3
20260905184120 89 66 6.0 14.0 0.00 0.00 0.00 65 1016.5
20260905183622 89 80 7.0 14.0 0.00 0.00 0.00 65 1016.5
20260905183142 89 33 4.0 13.0 0.00 0.00 0.00 64 1016.6
20260905182645 89 63 7.0 13.0 0.00 0.00 0.00 63 1016.6
20260905182122 89 57 4.0 13.0 0.00 0.00 0.00 67 1016.6
20260905181626 89 100 2.0 13.0 0.00 0.00 0.00 68 1016.6
20260905181147 88 150 5.0 15.0 0.00 0.00 0.00 69 1016.7
20260905180614 88 91 10.0 15.0 0.00 0.00 0.00 69 1016.7
20260905180136 88 51 5.0 15.0 0.00 0.00 0.00 70 1016.6
20260905175619 87 3 3.0 15.0 0.00 0.00 0.00 70 1016.6
20260905175119 87 19 5.0 14.0 0.00 0.00 0.00 71 1016.5
20260905174646 87 101 11.0 14.0 0.00 0.00 0.00 71 1016.5
20260905174122 87 56 5.0 15.0 0.00 0.00 0.00 72 1016.6
20260905173627 87 119 7.0 15.0 0.00 0.00 0.00 72 1016.5
20260905173129 87 110 4.0 16.0 0.00 0.00 0.00 72 1016.5
20260905172617 87 40 5.0 16.0 0.00 0.00 0.00 72 1016.6
20260905172133 87 343 4.0 13.0 0.00 0.00 0.00 72 1016.6
20260905171621 86 88 7.0 18.0 0.00 0.00 0.00 72 1016.6
20260905171118 86 90 6.0 18.0 0.00 0.00 0.00 71 1016.6
20260905170621 86 67 4.0 15.0 0.00 0.00 0.00 72 1016.5
20260905170143 86 47 7.0 15.0 0.00 0.00 0.00 72 1016.6
20260905165626 87 39 4.0 13.0 0.00 0.00 0.00 71 1016.7
20260905165123 87 347 3.0 13.0 0.00 0.00 0.00 68 1016.6
20260905164626 88 98 6.0 10.0 0.00 0.00 0.00 66 1016.7
20260905164129 88 63 3.0 9.0 0.00 0.00 0.00 69 1016.7
20260905163634 88 70 4.0 9.0 0.00 0.00 0.00 68 1016.7
20260905163132 88 14 4.0 10.0 0.00 0.00 0.00 68 1016.8
20260905162655 88 4 4.0 10.0 0.00 0.00 0.00 69 1016.6
20260905162127 88 42 3.0 11.0 0.00 0.00 0.00 68 1016.8
20260905161617 88 65 4.0 10.0 0.00 0.00 0.00 66 1016.9
20260905161117 88 292 2.0 10.0 0.00 0.00 0.00 69 1016.7
20260905160619 88 86 4.0 7.0 0.00 0.00 0.00 69 1016.5
20260905160118 88 33 1.0 6.0 0.00 0.00 0.00 70 1016.5
20260905155641 88 87 3.0 6.0 0.00 0.00 0.00 67 1016.4
20260905155117 88 81 2.0 6.0 0.00 0.00 0.00 67 1016.4
20260905154621 88 74 3.0 6.0 0.00 0.00 0.00 66 1016.2
20260905154142 89 79 2.0 4.0 0.00 0.00 0.00 65 1016.3
20260905153628 89 56 2.0 5.0 0.00 0.00 0.00 64 1016.3
20260905153126 89 31 3.0 5.0 0.00 0.00 0.00 65 1016.3
20260905152629 88 83 3.0 4.0 0.00 0.00 0.00 65 1016.2
20260905152127 88 65 1.0 3.0 0.00 0.00 0.00 65 1016.1
20260905151651 88 124 1.0 2.0 0.00 0.00 0.00 66 1016.0
20260905151127 88 53 1.0 4.0 0.00 0.00 0.00 67 1015.0
20260905150634 88 56 2.0 4.0 0.00 0.00 0.00 67 1015.0
20260905150154 87 262 1.0 2.0 0.00 0.00 0.00 68 1015.0
20260905145657 87 204 1.0 2.0 0.00 0.00 0.00 66 1014.9
20260905145134 87 204 1.0 1.0 0.00 0.00 0.00 66 1014.8
20260905144636 87 204 0.0 2.0 0.00 0.00 0.00 66 1014.9
20260905144134 87 204 1.0 2.0 0.00 0.00 0.00 66 1014.8
20260905143637 87 204 0.0 4.0 0.00 0.00 0.00 66 1014.6
20260905143137 87 204 2.0 4.0 0.00 0.00 0.00 65 1014.4
20260905142623 87 103 0.0 2.0 0.00 0.00 0.00 67 1014.4
20260905142122 86 103 1.0 4.0 0.00 0.00 0.00 68 1014.5
20260905141627 85 103 1.0 4.0 0.00 0.00 0.00 68 1014.5
20260905141148 85 119 1.0 6.0 0.00 0.00 0.00 70 1014.3
20260905140635 84 149 0.0 7.0 0.00 0.00 0.00 71 1014.1
20260905140135 84 135 2.0 7.0 0.00 0.00 0.00 71 1014.0
20260905135619 83 156 3.0 6.0 0.00 0.00 0.00 72 1013.9
20260905135136 83 137 1.0 6.0 0.00 0.00 0.00 73 1014.0
20260905134618 83 144 3.0 5.0 0.00 0.00 0.00 74 1014.1
20260905134116 82 145 1.0 5.0 0.00 0.00 0.00 75 1014.3
20260905133623 82 80 0.0 3.0 0.00 0.00 0.00 76 1014.5
20260905133126 81 80 2.0 3.0 0.00 0.00 0.00 77 1014.5
20260905132629 80 63 0.0 2.0 0.00 0.00 0.00 79 1014.4
20260905132127 80 63 0.0 2.0 0.00 0.00 0.00 79 1014.2
20260905131629 79 63 1.0 2.0 0.00 0.00 0.00 80 1014.0
20260905131129 78 63 0.0 2.0 0.00 0.00 0.00 81 1013.9
20260905130633 78 63 0.0 2.0 0.00 0.00 0.00 82 1013.8
20260905130132 78 63 1.0 2.0 0.00 0.00 0.00 83 1013.8
20260905125652 78 63 0.0 1.0 0.00 0.00 0.00 82 1013.8
20260905125126 78 63 0.0 1.0 0.00 0.00 0.00 82 1013.8
20260905124631 78 63 0.0 2.0 0.00 0.00 0.00 82 1013.7
20260905124129 78 63 1.0 2.0 0.00 0.00 0.00 82 1013.7
20260905123633 78 63 0.0 2.0 0.00 0.00 0.00 81 1013.6
20260905123131 78 63 0.0 2.0 0.00 0.00 0.00 81 1013.6
20260905122657 78 63 1.0 2.0 0.00 0.00 0.00 81 1013.5
20260905122118 78 63 1.0 3.0 0.00 0.00 0.00 81 1013.4
20260905121622 78 63 1.0 3.0 0.00 0.00 0.00 81 1013.2
20260905121119 78 148 1.0 2.0 0.00 0.00 0.00 81 1013.2